Home   Weather   Township of Washington   Past weeks
Flag for USA

Past Weather in Township of Washington, Kansas, USA — Yesterday and Last 2 Weeks

Now
66 °F

Sunny.


Feels Like: 66 °F
Forecast: 69 / 46 °F
Wind: 17 mph from Southeast

Location: Forbes Field

Current Time: Oct 20, 2019 at 5:19:04 pm

Latest Report: Oct 20, 2019 at 3:53 pm


Visibility: 10 mi

Pressure: 29.61 "Hg

Humidity: 56%

Dew Point: 50 °F

Location of Township of WashingtonLocation

Past Weather in Township of Washington — Graph

°F

Township of Washington Temperature Yesterday

Maximum temperature yesterday: 68 °F (at 4:53 pm)
Minimum temperature yesterday: 45 °F (at 10:53 pm)
Average temperature yesterday: 57 °F

High & Low Weather Summary for the Past Weeks

 TemperatureHumidityPressure
High75 °F (Oct 14, 2:53 pm)100% (Oct 20, 6:53 am)30.32 "Hg (Oct 20, 6:53 am)
Low30 °F (Oct 12, 6:53 am)20% (Oct 12, 2:53 pm)29.61 "Hg (Oct 18, 5:53 pm)
Average54 °F67%29.97 "Hg
* Reported Oct 5 3:53 pm — Oct 20 3:53 pm, Township of Washington. Weather by CustomWeather, © 2019

Note: Actual official high and low records may vary slightly from our data, if they occured in-between our weather recording intervals... More about our weather records

Advertising

Township of Washington Weather History for the Previous 24 Hours

Scroll right to see more
 ConditionsComfort  
Time TempWeatherWind HumidityBarometerVisibility
3:53 pm
Sun, Oct 20
66 °FSunny.17 mph56%29.61 "Hg10 mi
2:53 pm66 °FSunny.16 mph52%29.65 "Hg10 mi
1:53 pm65 °FSunny.16 mph52%29.69 "Hg10 mi
12:53 pm67 °FSunny.21 mph49%29.73 "Hg10 mi
11:53 am64 °FSunny.18 mph54%29.77 "Hg10 mi
10:53 am60 °FSunny.22 mph65%29.78 "Hg10 mi
9:53 am57 °FSunny.10 mph81%29.82 "Hg10 mi
8:53 am50 °FFog.6 mph96%29.82 "Hg4 mi
8:30 am48 °FFog.6 mph96%29.82 "Hg2 mi
7:53 am41 °FFog.3 mph96%29.82 "Hg0 mi
6:53 am40 °FFog.3 mph100%29.81 "Hg0 mi
5:53 am42 °FFog.3 mph92%29.82 "Hg0 mi
5:30 am43 °FFog.3 mph93%29.81 "Hg0 mi
5:13 am44 °FFog.3 mph93%29.81 "Hg1 mi
4:53 am43 °FFog.No wind97%29.80 "Hg0 mi
4:34 am43 °FFog.3 mph93%29.81 "Hg1 mi
4:06 am42 °FFog.3 mph92%29.81 "Hg1 mi
3:35 am42 °FFog.3 mph92%29.82 "Hg1 mi
3:18 am41 °FFog.No wind96%29.83 "Hg1 mi
2:44 am42 °FFog.No wind92%29.84 "Hg1 mi
2:37 am42 °FFog.No wind92%29.84 "Hg0 mi
2:21 am42 °FFog.No wind92%29.83 "Hg1 mi
1:53 am44 °FClear.5 mph89%29.81 "Hg10 mi
1:26 am44 °FFog.3 mph93%29.83 "Hg1 mi
12:53 am45 °FClear.No wind90%29.83 "Hg10 mi
11:53 pm
Sat, Oct 19
46 °FClear.No wind89%29.84 "Hg10 mi
10:53 pm45 °FClear.No wind93%29.84 "Hg10 mi
9:53 pm48 °FClear.No wind86%29.83 "Hg10 mi
8:53 pm48 °FClear.No wind89%29.82 "Hg10 mi
7:53 pm53 °FClear.No wind80%29.80 "Hg10 mi
6:53 pm59 °FClear.No wind64%29.78 "Hg10 mi
5:53 pm67 °FSunny.No wind49%29.77 "Hg10 mi
Weather by CustomWeather, © 2019

See weather overview